Location: Marcé
(47.5801°N, 0.3280°W)
Time: 14:31:53
(UTC+01:00)

Explorer 7 - Pass Details

Date: 30 November 2021
Orbit: 483 x 674 km, 50.3° (Epoch: 19 January)

Event Time Altitude Azimuth Distance (km) Brightness Sun altitude
Rises 14:17:15 0° 287° (WNW) 2,577 10.3 18.0°
Reaches altitude 10° 14:19:45 10° 273° (W) 1,676 9.6 17.8°
Maximum altitude 14:22:46 23° 219° (SW) 1,066 10.2 17.6°
Drops below altitude 10° 14:25:46 10° 165° (SSE) 1,656 10.2 17.4°
Sets 14:28:13 0° 151° (SSE) 2,538 10.8 17.3°
